FENTRESS NALF, VA

5:43 AM EDT on June 29, 2017 (GMT -0400)
Fentress Naval Air Landing Field

Weather History for KNFE - March, 2014

Change the Weather History Date:

Monday, March 24, 2014

  Actual Average (KNTU) Record (KNTU)
Temperature  
Mean Temperature 39 °F -  
Max Temperature 46 °F 58 °F 82 °F (2016)
Min Temperature 32 °F 41 °F 28 °F (2017)
Degree Days  
Heating Degree Days 26    
Moisture  
Dew Point 21 °F    
Average Humidity 52    
Maximum Humidity 86    
Minimum Humidity 31    
Precipitation  
Precipitation 0.00 in - - ()
Sea Level Pressure  
Sea Level Pressure 30.22 in    
Wind  
Wind Speed 6 mph (North)    
Max Wind Speed 15 mph    
Max Gust Speed 25 mph    
Visibility 9 miles    
Events      
Averages and records for this station are not official NWS values.
T = Trace of Precipitation, MM = Missing Value Source: NWS Daily Summary

Daily Weather History Graph

Daily Weather History Graph

Search for Another Location

Airport or City:

Trip Planner

Search our weather history database for the weather conditions in past years. The results will help you decide how hot, cold, wet, or windy it might be!

Date:

Astronomy

Mar. 24, 2014 Rise Set
Actual Time 7:02 AM EDT 7:19 PM EDT
Civil Twilight 6:36 AM EDT 7:45 PM EDT
Nautical Twilight 6:06 AM EDT 8:16 PM EDT
Astronomical Twilight 5:35 AM EDT 8:46 PM EDT
Moon 2:21 AM EDT (3/24) 12:51 PM EDT (3/24)
Length of Visible Light 13h 09m
Length of Day
12h 17m
Last Quarter, 43% of the Moon is Illuminated
Mar 24
Last Quarter
Mar 30
New
Apr 7
First Quarter
Apr 15
Full
Apr 22
Last Quarter

Hourly Weather History & Observations

Time (EDT) Temp. Windchill Dew Point Humidity Pressure Visibility Wind Dir Wind Speed Gust Speed Precip Events Conditions
12:56 AM 36.0 °F - 30.9 °F 82% 30.14 in 3.0 mi Calm Calm - N/A   Haze
1:02 AM 36.0 °F - 30.9 °F 82% 30.13 in 2.5 mi Calm Calm - N/A   Haze
1:11 AM 36.0 °F - 32.0 °F 86% 30.14 in 3.0 mi Calm Calm - N/A   Partly Cloudy
1:56 AM 37.0 °F 34.5 °F 32.0 °F 82% 30.15 in 3.0 mi NW 3.5 mph - N/A   Haze
2:56 AM 39.0 °F 32.8 °F 27.0 °F 62% 30.16 in 10.0 mi NNW 9.2 mph - N/A   Clear
3:56 AM 37.9 °F 29.6 °F 17.1 °F 43% 30.17 in 10.0 mi North 13.8 mph 25.3 mph N/A   Clear
4:56 AM 37.0 °F 29.3 °F 16.0 °F 42% 30.19 in 10.0 mi North 11.5 mph 19.6 mph N/A   Clear
5:56 AM 36.0 °F 27.1 °F 14.0 °F 41% 30.22 in 10.0 mi North 13.8 mph - N/A   Clear
6:56 AM 35.1 °F 27.4 °F 15.1 °F 44% 30.24 in 10.0 mi NNW 10.4 mph 17.3 mph N/A   Clear
7:56 AM 36.0 °F 29.0 °F 16.0 °F 44% 30.27 in 10.0 mi North 9.2 mph - N/A   Clear
8:56 AM 37.9 °F 29.2 °F 17.1 °F 43% 30.29 in 10.0 mi North 15.0 mph 21.9 mph N/A   Clear
9:56 AM 39.0 °F 31.4 °F 18.0 °F 43% 30.30 in 10.0 mi NNW 12.7 mph 21.9 mph N/A   Mostly Cloudy
10:56 AM 39.0 °F 31.4 °F 17.1 °F 41% 30.31 in 10.0 mi North 12.7 mph - N/A   Mostly Cloudy
11:56 AM 39.9 °F 34.5 °F 18.0 °F 41% 30.30 in 10.0 mi North 8.1 mph - N/A   Scattered Clouds
12:56 PM 42.1 °F 34.5 °F 18.0 °F 38% 30.28 in 10.0 mi NNE 15.0 mph 19.6 mph N/A   Partly Cloudy
1:56 PM 42.1 °F 38.4 °F 17.1 °F 37% 30.24 in 10.0 mi Variable 5.8 mph - N/A   Clear
2:56 PM 44.1 °F 41.5 °F 15.1 °F 31% 30.22 in 10.0 mi NW 4.6 mph - N/A   Clear
3:56 PM 45.0 °F 39.7 °F 18.0 °F 34% 30.20 in 10.0 mi NNE 10.4 mph - N/A   Clear
4:56 PM 45.0 °F 39.7 °F 19.0 °F 36% 30.18 in 10.0 mi ENE 10.4 mph 17.3 mph N/A   Clear
5:56 PM 39.9 °F 33.4 °F 19.0 °F 43% 30.20 in 10.0 mi ESE 10.4 mph - N/A   Clear
6:56 PM 37.0 °F 31.0 °F 19.9 °F 50% 30.21 in 10.0 mi ESE 8.1 mph - N/A   Clear
7:56 PM 35.1 °F 31.0 °F 21.0 °F 57% 30.22 in 10.0 mi SE 4.6 mph - N/A   Clear
8:56 PM 34.0 °F 29.8 °F 21.9 °F 61% 30.22 in 10.0 mi ESE 4.6 mph - N/A   Clear
9:56 PM 33.1 °F - 23.0 °F 66% 30.21 in 10.0 mi Calm Calm - N/A   Clear
10:56 PM 33.1 °F 30.0 °F 23.0 °F 66% 30.21 in 10.0 mi South 3.5 mph - N/A   Clear
11:56 PM 32.0 °F 28.7 °F 23.0 °F 69% 30.20 in 10.0 mi SSE 3.5 mph - N/A   Clear